NOAA 16 DEB, 41265

Orbit data source: Space-Track

NOAA 16 DEB, 41265 is space debris in SSO originally from a launch on Thu, 21 Sep 2000 UTC launched from the Air Force Western Test Range (AFWTR). Debris objects in space refer to the collection of defunct objects orbiting the Earth. Examples of debris include non-operational satellites, rocket bodies, and fragments generated from explosions, collisions, or faulty payload assembly.

Loading next visibility...
Identifier
41265, 2000-055FR
Orbit
SSO
Country
Flag of USUS
Related business
Manufacturer
Unknown
Mission
Spacecraft
Bus & Motor
Unknown
Mass
Unknown
Launch date (UTC)
2000-09-21 (25 years ago)
Launch vehicle
Unknown
Launch site
Air Force Western Test Range (AFWTR)
Object type
Payload
Rocket body
Debris
Shape & HBR
Unknown shape, 0.1 m
Radar Cross Section
Small (<0.1 m²)

Expand to show TLE details & history
Last TLE update: 1 day ago

TLE from 1 day ago
0 NOAA 16 DEB
1 41265U 00055FR  26036.46920470  .00006165  00000-0  26728-2 0  9992
2 41265  98.6370  43.1655 0029292 197.3673 162.6506 14.24335037521238
Epoch: 2026-02-05T11:15Z
TLE epoch observation values (Epoch: 2026-02-05T11:15:39.286Z)
Latitude
-0.00007°
Longitude
98.63083°
Altitude
833.761 km
Speed
7.426 km/s
True Right ascension
02h 52m 39s
True Declination
0° 00' 00"
Sunlit
Object was in daylight at epoch
Visualization orbit readout
Latitude
Unknown
Longitude
Unknown
Altitude
Unknown
Speed
Unknown
Apparent Right ascension
Unknown
Apparent Declination
Unknown
Sunlit
N/A
Visualization observer readout
Local Sidereal Time
21:00:10
Azimuth
Unknown
Elevation
Unknown
Doppler factor
Unknown
Orbital elements
Apogee altitude
828.928 km
Perigee altitude
786.829 km
Semi-major axis
7,186.016 km
Eccentricity
0.00293
Inclination
98.637°
RAAN
43.1655°
Arg. of periapsis
197.3673°
True anomaly
162.75034°
Mean anomaly
162.6506°
Eccentric anomaly
162.70051°
Mean motion
3.56296 °/min
Orbital period
101.04 mins
BSTAR
0.0026728
Loading maneuver chart data...
Computing Atmospheric mass density...
Loading historical data...
Loading historical data...
Loading historical data...
Loading historical data...
Loading historical data...
Loading historical data...
Loading historical data...

Documentation

Showing up to 5 results
|